Regional Weather Roundup
Issued by NWS Albany, NY

Current Version | Previous Version | Graphics & Text | Print | Product List | Glossary Off
Versions: 1 2 3 4 5 6 7 8 9 10 11 12 13 14 15 16 17 18 19 20 21 22 23 24 25 26 27 28 29 30 31 32 33 34 35 36 37 38 39 40 41 42 43 44 45 46 47 48 49 50

000
ASUS41 KALY 231610
RWRALY

NEW YORK STATE HOURLY WEATHER ROUNDUP
NATIONAL WEATHER SERVICE ALBANY NY
1200 PM EDT TUE SEP 23 2014

NOTE: "FAIR" INDICATES FEW OR NO CLOUDS BELOW 12,000 FEET WITH NO
SIGNIFICANT WEATHER AND/OR NO OBSTRUCTIONS TO VISIBILITY.

NYZ032-033-038>043-046>054-057>066-NYZ062>081-231700-
EAST


CITY           SKY/WX    TMP DP  RH WIND       PRES   REMARKS
ALBANY         MOSUNNY   63  46  54 W10       30.31S
GLENS FALLS    SUNNY     58  44  60 SE9       30.29S
POUGHKEEPSIE   SUNNY     63  41  44 MISG      30.31S
NEWBURGH       SUNNY     61  46  59 SW7       30.33S
MONTGOMERY     SUNNY     64  43  46 CALM      30.31S
WHITE PLAINS   SUNNY     63  42  46 NW8       30.32S
ISLIP          MOSUNNY   63  44  50 VRB7G18   30.31S
NEW YORK CITY  MOSUNNY   64  41  42 NW3       30.33S
CENTRAL PARK   SUNNY     64  40  41 W6        30.36S
$$

NYZ005>009-017-018-044>046-055-056-231700-
CENTRAL


CITY           SKY/WX    TMP DP  RH WIND       PRES   REMARKS
FULTON         SUNNY     63  51  65 SW6       30.30R
SYRACUSE       PTSUNNY   64  50  60 SW6       30.31R
ROME           MOSUNNY   58  47  66 CALM      30.32F
ELMIRA         LGT RAIN  64  49  57 SW9       30.32F
BINGHAMTON     SUNNY     58  47  66 NW5       30.33S
MONTICELLO     SUNNY     57  45  62 NW8       30.34S
$$

NYZ026>034-041>043-231700-
NORTH


CITY           SKY/WX    TMP DP  RH WIND       PRES   REMARKS
WATERTOWN      CLOUDY    62  52  69 SW12G21   30.28R
FORT DRUM      NOT AVBL
MASSENA        CLOUDY    56  50  80 SW7       30.25S
SARANAC LAKE   CLOUDY    49  48  97 SW7       30.24S FOG
PLATTSBURGH    MOSUNNY   61  48  62 VRB7      30.23S
$$

NYZ001>004-010>016-019>021-231700-
WEST


CITY           SKY/WX    TMP DP  RH WIND       PRES   REMARKS
NIAGARA FALLS  MOSUNNY   66  46  48 W15       30.30R
BUFFALO        MOSUNNY   65  46  50 SW14      30.30S
DUNKIRK        MOSUNNY   63  50  62 SW10      30.33F
JAMESTOWN      PTSUNNY   55  48  76 W6        30.36R
WELLSVILLE     SUNNY     59  47  64 NW7       30.36S
ROCHESTER      MOSUNNY   65  47  52 W14G20    30.30S
PENN YAN       SUNNY     64  48  56 W5        30.32S
$$

             KEY
       WCI = WIND CHILL INDEX
       VSB = VISIBILITY
       HX  = HEAT INDEX
$$


USA.gov is the U.S. government's official web portal to all federal, state and local government web resources and services.